User: anonymous   Login
Location: Carri�res
(48.9069°N, 2.1792°E)
Time: 13:25:25
(UTC+00:00)
Language:

Cosmos 1503 Rocket - Orbit

View from above orbital plane
View from above orbital plane
View from above satellite
View from above satellite

Ground track
Ground track

The orbit data is extracted from the following two-line orbital elements,

1 14402U 83103B   21125.86713435  .00000074  00000-0  34215-4 0  9994
2 14402  74.0450 170.8217 0026509  20.3631 339.8572 14.36012065965674
Epoch (UTC): 05 May 2021 20:48:40
Eccentricity: 0.0026509
inclination: 74.0450°
perigee height: 753 km
apogee height: 790 km
right ascension of ascending node: 170.8217°
argument of perigee: 20.3631°
revolutions per day: 14.36012065
mean anomaly at epoch: 339.8572°
orbit number at epoch: 96567

The dashed part of the orbit path shows where the satellite is in the earth's shadow,  

DLR